Regional Weather Roundup
Issued by NWS

Home | Current Version | Previous Version | Graphics & Text | Print | Product List | Glossary On
Versions: 1 2 3 4 5 6 7 8 9 10 11 12 13 14 15 16 17 18 19 20 21 22 23 24 25 26 27 28 29 30 31 32 33 34 35 36 37 38 39 40 41 42 43 44 45 46 47 48 49 50
165
ASUS43 KFSD 082010
RWRSD

WEATHER ROUNDUP FOR SOUTH DAKOTA
NATIONAL WEATHER SERVICE SIOUX FALLS SD
200 PM CST MON FEB 08 2016

NOTE: "FAIR" INDICATES FEW OR NO CLOUDS BELOW 12,000 FEET WITH NO
SIGNIFICANT WEATHER AND/OR OBSTRUCTIONS TO VISIBILITY.


SDZ001>005-009-010-012>017-082100-
NORTHWEST AND NORTH CENTRAL SOUTH DAKOTA

CITY           SKY/WX    TMP DP  RH WIND       PRES   REMARKS
BUFFALO          N/A     38   8  29 NW22G33   30.22F
FAITH            N/A     37  10  32 NW29G37   30.25F
MOBRIDGE       PTSUNNY   37  18  46 NW29G35   30.19F
$$

SDZ012>016-024>037-041>051-057-063-072>074-082100-
SOUTHWEST AND SOUTH CENTRAL SOUTH DAKOTA

CITY           SKY/WX    TMP DP  RH WIND       PRES   REMARKS
RAPID CTY ARPT CLOUDY    40   8  26 N30G38    30.28F
PIERRE         CLOUDY    36  16  44 NW29G39   30.23F
CUSTER         CLOUDY    36  16  44 N13G25    30.23F
ELLSWORTH AFB  CLOUDY    39   9  28 NW30      30.27F
PHILIP         PTSUNNY   39  15  37 NW20      30.29F
PINE RIDGE     CLOUDY    38   9  30 NW15      30.30F
SPEARFISH      FAIR      36   9  32 W17       30.31F
WINNER         FAIR      35  17  47 NW25G39   30.23F WCI  23
$$

SDZ004>011-016>023-039-040-082100-
NORTHEAST SOUTH DAKOTA

CITY           SKY/WX    TMP DP  RH WIND       PRES   REMARKS
ABERDEEN       SUNNY     33  12  41 N24G36    30.17F WCI  20
WATERTOWN      CLOUDY    22  11  62 N29G37    30.08F WCI   4
BROOKINGS      FLURRIES  20  13  74 N28       30.05S WCI   2
SISSETON         N/A     20  13  74 N30G38    30.12S WCI   1
$$

SDZ017-020-022-023-036>040-048>070-082100-
SOUTHEAST SOUTH DAKOTA

CITY           SKY/WX    TMP DP  RH WIND       PRES   REMARKS
SIOUX FALLS    PTSUNNY   23  15  71 N24G31    30.09S WCI   7
HURON          SUNNY     32  15  49 N29G35    30.16S WCI  18
CHAMBERLAIN    CLOUDY    33  20  59 NW24G33   30.21F WCI  20
MITCHELL       SUNNY     32  18  56 NW28G39   30.17F WCI  18
YANKTON        SUNNY    N/A N/A N/A NW32G38   30.11F
$$

ABBREVIATIONS USED IN REMARKS
   TC - TEMPERATURE IN CELSIUS
  WCI - WIND CHILL INDEX
   HX - HEAT INDEX
  VSB - VISIBILITY





USA.gov is the U.S. government's official web portal to all federal, state and local government web resources and services.